This demonstration page uses our WeatherBlox Daily Observations layout. Learn more.

Left ArrowRight Arrow

41.86663, -103.66717

Hourly Observations for December 4, 2022

Temp ( °F °C ) Dew Point ( °F °C ) Humidity (%) Winds ( mph kmh ) Pressure ( in mb ) Visibility ( mi km ) Precip ( " mm )
12:53 am 00:53 Clear 19 -7.2 14 -10 80 80 N 5 7 30.28 1025 10 16 0.00 0.00
1:53 am 01:53 Clear 21 -6.1 15 -9.4 77 77 SSW 3 6 30.28 1025 10 16 0.00 0.00
2:53 am 02:53 Clear 18 -7.8 12 -11.1 77 77 N 5 7 30.29 1026 10 16 0.00 0.00
3:53 am 03:53 Clear 18 -7.8 12 -11.1 77 77 VRB 3 6 30.27 1025 10 16 0.00 0.00
4:53 am 04:53 Clear 15 -9.4 10 -12.2 80 80 Calm 30.29 1026 10 16 0.00 0.00
5:53 am 05:53 Clear 18 -7.8 10 -12.2 71 71 Calm 30.28 1026 10 16 0.00 0.00
6:53 am 06:53 Clear 13 -10.6 8 -13.3 80 80 N 3 6 30.29 1026 10 16 0.00 0.00
7:53 am 07:53 Sunny 18 -7.8 11 -11.7 73 73 NNE 3 6 30.26 1025 10 16 0.00 0.00
8:53 am 08:53 Partly Cloudy 25 -3.9 17 -8.3 71 71 Calm 30.22 1023 10 16 0.00 0.00
9:53 am 09:53 Mostly Sunny 30 -1.1 21 -6.1 69 69 E 5 7 30.19 1022 10 16 0.00 0.00
10:53 am 10:53 Sunny 37 2.8 25 -3.9 61 61 ESE 6 9 30.14 1021 10 16 0.00 0.00
11:53 am 11:53 Sunny 42 5.6 28 -2.2 57 57 ESE 6 9 30.06 1018 10 16 0.00 0.00
12:53 pm 12:53 Sunny 45 7.2 29 -1.7 53 53 SE 7 11 30.01 1016 10 16 0.00 0.00
1:53 pm 13:53 Sunny 48 8.9 29 -1.7 47 47 SSE 6 9 29.95 1014 10 16 0.00 0.00
2:53 pm 14:53 Sunny 47 8.3 30 -1.1 51 51 Calm 29.93 1014 10 16 0.00 0.00
3:53 pm 15:53 Sunny 44 6.7 31 -0.6 60 60 E 3 6 29.92 1013 10 16 0.00 0.00
4:53 pm 16:53 Partly Cloudy 42 5.6 30 -1.1 62 62 ENE 6 9 29.91 1013 10 16 0.00 0.00
5:53 pm 17:53 Clear 38 3.3 30 -1.1 73 73 ESE 7 11 29.89 1012 10 16 0.00 0.00
6:53 pm 18:53 Clear 38 3.3 29 -1.7 70 70 S 6 9 29.90 1013 10 16 0.00 0.00
7:53 pm 19:53 Mostly Cloudy 38 3.3 29 -1.7 70 70 Calm 29.89 1012 10 16 0.00 0.00
8:53 pm 20:53 Cloudy 35 1.7 29 -1.7 78 78 N 9 15 29.87 1011 10 16 0.00 0.00
9:53 pm 21:53 Clear 35 1.7 27 -2.8 72 72 VRB 3 6 29.83 1010 10 16 0.00 0.00
10:53 pm 22:53 Clear 30 -1.1 26 -3.3 85 85 NNW 3 6 29.83 1010 10 16 0.00 0.00
11:53 pm 23:53 Clear 30 -1.1 25 -3.9 81 81 NE 5 7 29.80 1009 10 16 0.00 0.00

Powered by AerisWeather